• In Belarus
  • List of Countries
  • For 7 days
  • Water Temperature
  • Weather Map
  • Weather Widgets
  • user-avatar
    Login

    Hourly Weather Ozeryutino

    Today, 27 February, Thursday

    Time Temperature Precipitation Wind Pressure Humidity
    00:00 -1°C° 0 mm 1 mps 723 mmHg 94%
    01:00 -1°C° 0 mm 1 mps 723 mmHg 94%
    02:00 -1°C° 0 mm 1 mps 723 mmHg 94%
    03:00 -1°C° 0 mm 1 mps 723 mmHg 94%
    04:00 0°C° 0 mm 1 mps 722 mmHg 94%
    05:00 0°C° 0 mm 1 mps 722 mmHg 94%
    06:00 -2°C° 0 mm 2 mps 722 mmHg 94%
    07:00 -2°C° 0 mm 2 mps 722 mmHg 93%
    08:00 -1°C° 0 mm 2 mps 722 mmHg 93%
    09:00 -1°C° 0.2 mm 3 mps 721 mmHg 93%
    10:00 -1°C° 0.2 mm 3 mps 721 mmHg 94%
    11:00 -1°C° 0.2 mm 4 mps 720 mmHg 95%
    12:00 -1°C° 0.8 mm 4 mps 720 mmHg 96%
    13:00 -1°C° 0.8 mm 4 mps 719 mmHg 96%
    14:00 -1°C° 0.8 mm 3 mps 719 mmHg 97%
    15:00 0°C° 0.3 mm 3 mps 719 mmHg 97%
    16:00 0°C° 0.3 mm 3 mps 719 mmHg 97%
    17:00 +1°C° 0.3 mm 2 mps 718 mmHg 97%
    18:00 0°C° 0 mm 3 mps 719 mmHg 94%
    19:00 -1°C° 0 mm 4 mps 719 mmHg 91%
    20:00 -1°C° 0 mm 4 mps 719 mmHg 88%
    21:00 -1°C° 0 mm 4 mps 719 mmHg 89%
    22:00 -2°C° 0 mm 4 mps 719 mmHg 90%
    23:00 -2°C° 0 mm 5 mps 719 mmHg 91%

    Tomorrow, 28 February, Friday

    Time Temperature Precipitation Wind Pressure Humidity
    00:00 -2°C° 0 mm 4 mps 719 mmHg 90%
    01:00 -3°C° 0 mm 4 mps 720 mmHg 88%
    02:00 -3°C° 0 mm 4 mps 720 mmHg 87%
    03:00 -4°C° 0 mm 4 mps 720 mmHg 86%
    04:00 -4°C° 0 mm 4 mps 720 mmHg 85%
    05:00 -5°C° 0 mm 5 mps 721 mmHg 85%
    06:00 -4°C° 0 mm 4 mps 721 mmHg 84%
    07:00 -4°C° 0 mm 4 mps 721 mmHg 84%
    08:00 -4°C° 0 mm 4 mps 721 mmHg 83%
    09:00 -3°C° 0 mm 4 mps 721 mmHg 82%
    10:00 -3°C° 0 mm 4 mps 721 mmHg 80%
    11:00 -3°C° 0 mm 4 mps 722 mmHg 79%
    12:00 -3°C° 0 mm 4 mps 722 mmHg 77%
    13:00 -2°C° 0 mm 4 mps 722 mmHg 76%
    14:00 -2°C° 0 mm 4 mps 722 mmHg 75%
    15:00 -2°C° 0 mm 4 mps 723 mmHg 78%
    16:00 -2°C° 0 mm 3 mps 723 mmHg 80%
    17:00 -2°C° 0 mm 3 mps 723 mmHg 82%
    18:00 -2°C° 0 mm 3 mps 723 mmHg 85%
    19:00 -2°C° 0 mm 3 mps 724 mmHg 88%
    20:00 -4°C° 0 mm 3 mps 724 mmHg 91%
    21:00 -4°C° 0.1 mm 4 mps 724 mmHg 91%
    22:00 -3°C° 0.1 mm 4 mps 724 mmHg 90%
    23:00 -3°C° 0.1 mm 4 mps 725 mmHg 89%

    Day after tomorrow, 29 February, Saturday

    Time Temperature Precipitation Wind Pressure Humidity
    00:00 -4°C° 0 mm 4 mps 725 mmHg 89%
    01:00 -4°C° 0 mm 4 mps 725 mmHg 89%
    02:00 -4°C° 0 mm 4 mps 726 mmHg 89%
    03:00 -4°C° 0.1 mm 4 mps 726 mmHg 89%
    04:00 -4°C° 0.1 mm 4 mps 726 mmHg 89%
    05:00 -4°C° 0.1 mm 4 mps 727 mmHg 89%
    06:00 -5°C° 0 mm 4 mps 727 mmHg 86%
    07:00 -5°C° 0 mm 4 mps 728 mmHg 82%
    08:00 -5°C° 0 mm 4 mps 728 mmHg 79%
    09:00 -5°C° 0 mm 4 mps 729 mmHg 74%
    10:00 -4°C° 0 mm 4 mps 730 mmHg 69%
    11:00 -4°C° 0 mm 3 mps 730 mmHg 64%
    12:00 -4°C° 0 mm 3 mps 731 mmHg 63%
    13:00 -2°C° 0 mm 3 mps 731 mmHg 62%
    14:00 -2°C° 0 mm 3 mps 731 mmHg 61%
    15:00 -4°C° 0 mm 3 mps 732 mmHg 66%
    16:00 -3°C° 0 mm 2 mps 732 mmHg 71%
    17:00 -4°C° 0 mm 2 mps 733 mmHg 75%
    18:00 -4°C° 0 mm 2 mps 733 mmHg 78%
    19:00 -5°C° 0 mm 2 mps 734 mmHg 81%
    20:00 -3°C° 0 mm 1 mps 735 mmHg 84%
    21:00 -3°C° 0 mm 1 mps 735 mmHg 84%
    22:00 -4°C° 0 mm 1 mps 736 mmHg 85%
    23:00 -4°C° 0 mm 1 mps 736 mmHg 86%

    1 March, Sunday

    Time Temperature Precipitation Wind Pressure Humidity
    00:00 -4°C° 0 mm 1 mps 737 mmHg 86%
    01:00 -4°C° 0 mm 1 mps 737 mmHg 86%
    02:00 -4°C° 0 mm 1 mps 737 mmHg 87%
    03:00 -4°C° 0 mm 1 mps 738 mmHg 87%
    04:00 -4°C° 0 mm 1 mps 738 mmHg 87%
    05:00 -4°C° 0 mm 1 mps 738 mmHg 87%
    06:00 -6°C° 0 mm 2 mps 738 mmHg 84%
    07:00 -6°C° 0 mm 2 mps 739 mmHg 81%
    08:00 -6°C° 0 mm 3 mps 739 mmHg 78%
    09:00 -5°C° 0 mm 3 mps 739 mmHg 72%
    10:00 -4°C° 0 mm 4 mps 739 mmHg 66%
    11:00 -3°C° 0 mm 4 mps 739 mmHg 60%
    12:00 -3°C° 0 mm 4 mps 739 mmHg 59%
    13:00 -2°C° 0 mm 5 mps 738 mmHg 58%
    14:00 -2°C° 0 mm 5 mps 738 mmHg 57%
    15:00 -2°C° 0 mm 5 mps 738 mmHg 59%
    16:00 -2°C° 0 mm 4 mps 737 mmHg 60%
    17:00 -3°C° 0 mm 4 mps 737 mmHg 62%
    18:00 -3°C° 0 mm 4 mps 737 mmHg 64%
    19:00 -4°C° 0 mm 5 mps 737 mmHg 66%
    20:00 -4°C° 0 mm 5 mps 737 mmHg 67%
    21:00 -4°C° 0 mm 5 mps 737 mmHg 71%
    22:00 -3°C° 0 mm 6 mps 737 mmHg 74%
    23:00 -3°C° 0 mm 6 mps 736 mmHg 77%

    2 March, Monday

    Time Temperature Precipitation Wind Pressure Humidity
    00:00 -3°C° 0 mm 6 mps 736 mmHg 79%
    01:00 -3°C° 0 mm 6 mps 736 mmHg 81%
    02:00 -3°C° 0 mm 6 mps 736 mmHg 83%
    03:00 -3°C° 0 mm 6 mps 736 mmHg 82%
    04:00 -3°C° 0 mm 6 mps 735 mmHg 81%
    05:00 -3°C° 0 mm 6 mps 735 mmHg 81%
    06:00 -3°C° 0 mm 6 mps 735 mmHg 83%
    07:00 -3°C° 0 mm 6 mps 735 mmHg 85%
    08:00 -3°C° 0 mm 6 mps 734 mmHg 87%
    09:00 -3°C° 0.1 mm 6 mps 734 mmHg 89%
    10:00 -3°C° 0.1 mm 6 mps 734 mmHg 91%
    11:00 -3°C° 0.1 mm 6 mps 734 mmHg 92%
    12:00 -3°C° 0.1 mm 6 mps 734 mmHg 93%
    13:00 -3°C° 0.1 mm 6 mps 734 mmHg 94%
    14:00 -2°C° 0.1 mm 6 mps 733 mmHg 95%
    15:00 -3°C° 0.1 mm 6 mps 733 mmHg 95%
    16:00 -2°C° 0.1 mm 5 mps 733 mmHg 96%
    17:00 -2°C° 0.1 mm 5 mps 733 mmHg 96%
    18:00 -2°C° 0.3 mm 5 mps 733 mmHg 96%
    19:00 -2°C° 0.3 mm 5 mps 733 mmHg 96%
    20:00 -1°C° 0.3 mm 5 mps 733 mmHg 96%
    21:00 -1°C° 0.2 mm 4 mps 733 mmHg 97%
    22:00 -1°C° 0.2 mm 4 mps 733 mmHg 97%
    23:00 0°C° 0.2 mm 3 mps 733 mmHg 97%

    3 March, Tuesday

    Time Temperature Precipitation Wind Pressure Humidity
    00:00 0°C° 0.2 mm 3 mps 733 mmHg 97%
    01:00 0°C° 0.2 mm 3 mps 733 mmHg 97%
    02:00 +1°C° 0.2 mm 2 mps 734 mmHg 97%
    03:00 +1°C° 0 mm 2 mps 734 mmHg 97%
    04:00 +1°C° 0 mm 2 mps 734 mmHg 97%
    05:00 +1°C° 0 mm 2 mps 734 mmHg 97%
    06:00 +1°C° 0 mm 2 mps 734 mmHg 97%
    07:00 -1°C° 0 mm 2 mps 735 mmHg 96%
    08:00 -1°C° 0 mm 2 mps 735 mmHg 96%
    09:00 +1°C° 0 mm 2 mps 735 mmHg 93%
    10:00 +2°C° 0 mm 2 mps 735 mmHg 89%
    11:00 +3°C° 0 mm 2 mps 736 mmHg 86%
    12:00 +3°C° 0 mm 2 mps 736 mmHg 85%
    13:00 +4°C° 0 mm 2 mps 736 mmHg 85%
    14:00 +3°C° 0 mm 3 mps 736 mmHg 85%
    15:00 +3°C° 0 mm 2 mps 736 mmHg 87%
    16:00 +3°C° 0 mm 2 mps 737 mmHg 89%
    17:00 +2°C° 0 mm 2 mps 737 mmHg 91%
    18:00 +1°C° 0 mm 2 mps 737 mmHg 92%
    19:00 -1°C° 0 mm 2 mps 737 mmHg 93%
    20:00 -1°C° 0 mm 2 mps 738 mmHg 93%
    21:00 -1°C° 0 mm 2 mps 738 mmHg 94%
    22:00 -2°C° 0 mm 2 mps 738 mmHg 94%
    23:00 -2°C° 0 mm 2 mps 738 mmHg 94%
    Show more